This is the latest recevied weather packets stored in our database for station/object WA6OOO. If no packets are shown the sender has not sent any weather packets the latest 10 day(s).
| Time | Temp. | Humidity | Pressure | Rain* | Wind** | Luminosity | Snow |
|---|---|---|---|---|---|---|---|
| 1777923486 | 18.33° C | 59% | 1018.5 hPa | 0 mm | - | 887 W/m² | - |
| 1777923184 | 18.89° C | 59% | 1018.6 hPa | 0 mm | - | 841 W/m² | - |
| 1777922882 | 17.78° C | 60% | 1018.5 hPa | 0 mm | - | 807 W/m² | - |
| 1777922580 | 18.33° C | 58% | 1018.7 hPa | 0 mm | - | 807 W/m² | - |
| 1777922278 | 18.33° C | 59% | 1018.7 hPa | 0 mm | - | 804 W/m² | - |
| 1777921975 | 18.33° C | 59% | 1018.7 hPa | 0 mm | - | 802 W/m² | - |
| 1777921670 | 18.89° C | 56% | 1018.5 hPa | 0 mm | - | 792 W/m² | - |
| 1777921367 | 18.89° C | 59% | 1018.6 hPa | 0 mm | - | 804 W/m² | - |
| 1777921064 | 18.33° C | 57% | 1018.6 hPa | 0 mm | - | 796 W/m² | - |
| 1777920760 | 18.89° C | 56% | 1018.7 hPa | 0 mm | - | 798 W/m² | - |
| 1777920457 | 18.89° C | 56% | 1018.6 hPa | 0 mm | - | 743 W/m² | - |
| 1777920153 | 18.89° C | 57% | 1018.7 hPa | 0 mm | - | 810 W/m² | - |
| 1777919849 | 18.89° C | 54% | 1018.5 hPa | 0 mm | - | 603 W/m² | - |
| 1777919546 | 18.89° C | 56% | 1018.5 hPa | 0 mm | - | 737 W/m² | - |
| 1777919244 | 18.33° C | 57% | 1018.6 hPa | 0 mm | - | 752 W/m² | - |
| 1777918941 | 18.89° C | 56% | 1018.6 hPa | 0 mm | - | 427 W/m² | - |
| 1777918638 | 18.89° C | 55% | 1018.9 hPa | 0 mm | - | 391 W/m² | - |
| 1777918336 | 18.89° C | 55% | 1018.8 hPa | 0 mm | - | 621 W/m² | - |
| 1777918035 | 18.33° C | 55% | 1018.7 hPa | 0 mm | - | 627 W/m² | - |
| 1777917733 | 18.33° C | 59% | 1018.7 hPa | 0 mm | - | 927 W/m² | - |
| 1777917430 | 17.78° C | 58% | 1018.7 hPa | 0 mm | - | 495 W/m² | - |
| 1777917126 | 18.89° C | 60% | 1018.5 hPa | 0 mm | - | 503 W/m² | - |
| 1777916824 | 18.33° C | 60% | 1018.6 hPa | 0 mm | - | 529 W/m² | - |
| 1777916522 | 17.78° C | 60% | 1018.7 hPa | 0 mm | - | 444 W/m² | - |
| 1777916218 | 17.78° C | 58% | 1018.7 hPa | 0 mm | - | 498 W/m² | - |
* Rain latest hour (hover to see other rain measurements)
** Current wind speed in m/s (hover to see current wind gust speed)